Stündliche Wetter Abrahovo

Heute, 24 Juni, Donnerstag

Zeit Temperatur Niederschläge Wind Luftdruck Luftfeuchtigkeit
00:00 +24°C° 0 mm 1 m/S 755 mmHg 79%
01:00 +23°C° 0 mm 1 m/S 755 mmHg 81%
02:00 +23°C° 0 mm 1 m/S 755 mmHg 83%
03:00 +20°C° 0 mm 0 m/S 755 mmHg 85%
04:00 +21°C° 0 mm 0 m/S 755 mmHg 82%
05:00 +22°C° 0 mm 0 m/S 755 mmHg 79%
06:00 +23°C° 0 mm 0 m/S 755 mmHg 77%
07:00 +25°C° 0 mm 0 m/S 755 mmHg 68%
08:00 +27°C° 0 mm 0 m/S 755 mmHg 60%
09:00 +31°C° 0 mm 1 m/S 755 mmHg 52%
10:00 +33°C° 0 mm 1 m/S 755 mmHg 46%
11:00 +34°C° 0 mm 1 m/S 755 mmHg 41%
12:00 +35°C° 0 mm 1 m/S 754 mmHg 35%
13:00 +36°C° 0 mm 1 m/S 754 mmHg 34%
14:00 +36°C° 0 mm 1 m/S 754 mmHg 33%
15:00 +36°C° 0 mm 1 m/S 754 mmHg 32%
16:00 +35°C° 0 mm 1 m/S 753 mmHg 37%
17:00 +35°C° 0 mm 2 m/S 753 mmHg 42%
18:00 +34°C° 0 mm 2 m/S 753 mmHg 48%
19:00 +31°C° 0 mm 2 m/S 753 mmHg 57%
20:00 +29°C° 0 mm 2 m/S 753 mmHg 66%
21:00 +27°C° 0 mm 2 m/S 753 mmHg 76%
22:00 +26°C° 0 mm 2 m/S 753 mmHg 78%
23:00 +25°C° 0 mm 1 m/S 753 mmHg 80%

Morgen, 25 Juni, Freitag

Zeit Temperatur Niederschläge Wind Luftdruck Luftfeuchtigkeit
00:00 +25°C° 0 mm 1 m/S 753 mmHg 82%
01:00 +24°C° 0 mm 1 m/S 753 mmHg 84%
02:00 +24°C° 0 mm 1 m/S 753 mmHg 85%
03:00 +23°C° 0 mm 1 m/S 753 mmHg 87%
04:00 +24°C° 0 mm 1 m/S 753 mmHg 84%
05:00 +25°C° 0 mm 1 m/S 753 mmHg 82%
06:00 +26°C° 0 mm 1 m/S 752 mmHg 79%
07:00 +27°C° 0 mm 1 m/S 752 mmHg 72%
08:00 +29°C° 0 mm 1 m/S 752 mmHg 65%
09:00 +31°C° 0 mm 2 m/S 752 mmHg 57%
10:00 +32°C° 0 mm 2 m/S 752 mmHg 52%
11:00 +34°C° 0 mm 2 m/S 752 mmHg 46%
12:00 +35°C° 0 mm 3 m/S 752 mmHg 40%
13:00 +35°C° 0 mm 3 m/S 752 mmHg 39%
14:00 +36°C° 0 mm 3 m/S 752 mmHg 38%
15:00 +36°C° 0 mm 3 m/S 751 mmHg 37%
16:00 +35°C° 0 mm 3 m/S 751 mmHg 42%
17:00 +34°C° 0 mm 3 m/S 750 mmHg 46%
18:00 +34°C° 0 mm 3 m/S 750 mmHg 51%
19:00 +31°C° 0 mm 2 m/S 750 mmHg 59%
20:00 +28°C° 0 mm 2 m/S 750 mmHg 68%
21:00 +26°C° 0 mm 2 m/S 750 mmHg 76%
22:00 +25°C° 0 mm 2 m/S 750 mmHg 80%
23:00 +24°C° 0 mm 1 m/S 750 mmHg 83%

übermorgen, 26 Juni, Samstag

Zeit Temperatur Niederschläge Wind Luftdruck Luftfeuchtigkeit
00:00 +23°C° 0 mm 1 m/S 750 mmHg 86%
01:00 +22°C° 0 mm 1 m/S 750 mmHg 87%
02:00 +22°C° 0 mm 1 m/S 750 mmHg 88%
03:00 +22°C° 0 mm 1 m/S 750 mmHg 89%
04:00 +22°C° 0 mm 1 m/S 750 mmHg 86%
05:00 +23°C° 0 mm 1 m/S 750 mmHg 82%
06:00 +24°C° 0 mm 1 m/S 750 mmHg 79%
07:00 +26°C° 0 mm 1 m/S 750 mmHg 72%
08:00 +28°C° 0 mm 1 m/S 750 mmHg 65%
09:00 +30°C° 0 mm 1 m/S 750 mmHg 58%
10:00 +31°C° 0 mm 2 m/S 750 mmHg 53%
11:00 +32°C° 0 mm 2 m/S 750 mmHg 49%
12:00 +34°C° 0 mm 2 m/S 750 mmHg 44%
13:00 +35°C° 0 mm 2 m/S 750 mmHg 43%
14:00 +35°C° 0 mm 2 m/S 749 mmHg 42%
15:00 +35°C° 0 mm 3 m/S 749 mmHg 41%
16:00 +34°C° 0 mm 3 m/S 749 mmHg 46%
17:00 +32°C° 0 mm 2 m/S 749 mmHg 51%
18:00 +32°C° 0 mm 2 m/S 749 mmHg 57%
19:00 +28°C° 1.1 mm 2 m/S 749 mmHg 68%
20:00 +25°C° 1.1 mm 2 m/S 750 mmHg 79%
21:00 +21°C° 1.1 mm 2 m/S 750 mmHg 91%
22:00 +21°C° 0.3 mm 2 m/S 749 mmHg 91%
23:00 +21°C° 0.3 mm 2 m/S 749 mmHg 90%

27 Juni, Sonntag

Zeit Temperatur Niederschläge Wind Luftdruck Luftfeuchtigkeit
00:00 +21°C° 0.3 mm 2 m/S 749 mmHg 90%
01:00 +20°C° 0.2 mm 2 m/S 749 mmHg 91%
02:00 +21°C° 0.2 mm 1 m/S 749 mmHg 92%
03:00 +21°C° 0.2 mm 1 m/S 749 mmHg 93%
04:00 +22°C° 0.3 mm 1 m/S 750 mmHg 92%
05:00 +22°C° 0.3 mm 1 m/S 750 mmHg 91%
06:00 +21°C° 0.3 mm 0 m/S 750 mmHg 90%
07:00 +25°C° 0 mm 1 m/S 750 mmHg 81%
08:00 +27°C° 0 mm 1 m/S 750 mmHg 72%
09:00 +29°C° 0 mm 1 m/S 750 mmHg 63%
10:00 +31°C° 0 mm 1 m/S 750 mmHg 56%
11:00 +33°C° 0 mm 1 m/S 750 mmHg 50%
12:00 +34°C° 0 mm 1 m/S 750 mmHg 43%
13:00 +34°C° 0 mm 1 m/S 749 mmHg 43%
14:00 +35°C° 0 mm 2 m/S 749 mmHg 43%
15:00 +35°C° 0 mm 2 m/S 749 mmHg 43%
16:00 +34°C° 0 mm 2 m/S 749 mmHg 48%
17:00 +32°C° 0 mm 2 m/S 749 mmHg 52%
18:00 +31°C° 0 mm 2 m/S 749 mmHg 57%
19:00 +28°C° 0.4 mm 3 m/S 749 mmHg 69%
20:00 +26°C° 0.4 mm 3 m/S 749 mmHg 80%
21:00 +22°C° 0.4 mm 3 m/S 750 mmHg 92%
22:00 +23°C° 0 mm 2 m/S 749 mmHg 93%
23:00 +21°C° 0 mm 2 m/S 749 mmHg 94%

28 Juni, Montag

Zeit Temperatur Niederschläge Wind Luftdruck Luftfeuchtigkeit
00:00 +21°C° 0 mm 1 m/S 749 mmHg 94%
01:00 +21°C° 0 mm 1 m/S 749 mmHg 94%
02:00 +21°C° 0 mm 1 m/S 749 mmHg 94%
03:00 +21°C° 0 mm 1 m/S 749 mmHg 94%
04:00 +22°C° 0.1 mm 1 m/S 749 mmHg 92%
05:00 +21°C° 0.1 mm 0 m/S 749 mmHg 90%
06:00 +22°C° 0.1 mm 0 m/S 749 mmHg 88%
07:00 +24°C° 0 mm 0 m/S 749 mmHg 79%
08:00 +26°C° 0 mm 0 m/S 749 mmHg 70%
09:00 +30°C° 0 mm 1 m/S 749 mmHg 62%
10:00 +31°C° 0.1 mm 1 m/S 749 mmHg 56%
11:00 +32°C° 0.1 mm 1 m/S 749 mmHg 51%
12:00 +34°C° 0.1 mm 1 m/S 748 mmHg 46%
13:00 +35°C° 0 mm 2 m/S 748 mmHg 44%
14:00 +35°C° 0 mm 3 m/S 747 mmHg 42%
15:00 +36°C° 0 mm 3 m/S 747 mmHg 40%
16:00 +34°C° 0.2 mm 4 m/S 747 mmHg 47%
17:00 +33°C° 0.2 mm 4 m/S 747 mmHg 55%
18:00 +30°C° 0.2 mm 5 m/S 747 mmHg 62%
19:00 +27°C° 2.4 mm 4 m/S 747 mmHg 73%
20:00 +24°C° 2.4 mm 2 m/S 747 mmHg 85%
21:00 +21°C° 2.4 mm 1 m/S 747 mmHg 96%
22:00 +20°C° 0.9 mm 2 m/S 747 mmHg 96%
23:00 +19°C° 0.9 mm 2 m/S 747 mmHg 96%

29 Juni, Dienstag

Zeit Temperatur Niederschläge Wind Luftdruck Luftfeuchtigkeit
00:00 +19°C° 0.9 mm 3 m/S 746 mmHg 96%
01:00 +19°C° 0.4 mm 2 m/S 746 mmHg 97%
02:00 +19°C° 0.4 mm 2 m/S 746 mmHg 97%
03:00 +19°C° 0.4 mm 2 m/S 746 mmHg 97%
04:00 +19°C° 0.8 mm 2 m/S 746 mmHg 97%
05:00 +20°C° 0.8 mm 1 m/S 746 mmHg 97%
06:00 +21°C° 0.8 mm 1 m/S 746 mmHg 98%
07:00 +21°C° 1.3 mm 1 m/S 746 mmHg 96%
08:00 +22°C° 1.3 mm 1 m/S 747 mmHg 95%
09:00 +22°C° 1.3 mm 1 m/S 747 mmHg 94%
10:00 +23°C° 1 mm 1 m/S 747 mmHg 91%
11:00 +24°C° 1 mm 1 m/S 747 mmHg 89%
12:00 +24°C° 1 mm 1 m/S 747 mmHg 87%
13:00 +24°C° 0.3 mm 2 m/S 747 mmHg 85%
14:00 +25°C° 0.3 mm 2 m/S 747 mmHg 83%
15:00 +25°C° 0.3 mm 3 m/S 747 mmHg 81%
16:00 +24°C° 0.3 mm 3 m/S 747 mmHg 84%
17:00 +22°C° 0.3 mm 3 m/S 747 mmHg 87%
18:00 +21°C° 0.3 mm 3 m/S 747 mmHg 91%
19:00 +21°C° 0.5 mm 3 m/S 747 mmHg 92%
20:00 +20°C° 0.5 mm 3 m/S 747 mmHg 93%
21:00 +20°C° 0.5 mm 3 m/S 747 mmHg 94%
22:00 +19°C° 0.1 mm 2 m/S 747 mmHg 95%
23:00 +19°C° 0.1 mm 2 m/S 747 mmHg 95%
Mehr zeigen

Wir brauchen deine Erlaubnis

Meteoprog und unser Service Anbieter werden persönliche Daten aufbewahren, so wie Cookies, Geräte Bezeichnung oder ähnliche Technologien von deinem Gerät und Prozess, so wie Persönliche Daten Inhalte und Werbungen, genauso wie social Media und den Verkehr zu analysieren.

  • Aufbewahrung und/oder Zugang zu deiner Geräte Informationen.

    Cookies, Geräte Bezeichnung oder andere Informationen, können aufbewahrt oder Zugang zu deinem Gerät erhalten, für den Grund, der oben angegeben wird.

  • Personalisierte Werbung und Inhalte, Messungen, Einblick in das Publikum und Produkt Entwicklung.

    Werbungen und Inhalte können personalisiert werden, basierend auf ein Profil. Mehr Daten können besser personalisierte Werbungen und Inhalte hinzufügen. Werbung und Inhalte können gezeigt und gemessen werden. Einblicke über das Publikum, welche die Werbung gesehen haben und den Inhalt, können abgeleitet werden. So wie Daten können genutzt werden, um es zu verbessern oder die Benutzer Erfahrung zu verbessern das System und die Software.

Wenn du “Ich stimme zu” klickst, erlaubst du uns, die Cookies zu benutzen die Geräte Bezeichnung, den Web oder ähnliche Technologien zu benutzen. Deine Settings, können in deinem Gerät bei deinem Browser geändert werden.

Für den bestimmten Zweck, berechtigten Interessen beruhen darauf, mehr als auf den Inhalt. Du kannst mehr darüber in unseren Privaten und Cookie Politik lesen.